Regional Weather Roundup
Issued by NWS Portland, ME

Home | Current Version | Previous Version | Text Only | Print | Product List | Glossary On
Versions: 1 2 3 4 5 6 7 8 9 10 11 12 13 14 15 16 17 18 19 20 21 22 23 24 25 26 27 28 29 30 31 32 33 34 35 36 37 38 39 40 41 42 43 44 45 46 47 48 49 50
000
ASUS41 KGYX 220710
RWRGYX
WEATHER ROUNDUP FOR MAINE AND NEW HAMPSHIRE
NATIONAL WEATHER SERVICE GRAY ME
200 AM EST THU FEB 22 2018

MEZ002-005-006-010-012-015-018-020-021-024-026-027-029-220800-
MAINE

CITY           SKY/WX    TMP DP  RH WIND       PRES   REMARKS
PORTLAND       CLOUDY    42  28  57 VRB5      30.49R
SANFORD        CLOUDY    43  27  53 N10       30.49R
BAR HARBOR     FAIR      36  20  52 NW9G16    30.48R
WISCASSET      CLOUDY    40  24  53 VRB3      30.51R
ROCKLAND       CLOUDY    40  23  50 VRB6      30.48R
FRYEBURG       FAIR      35  24  64 N3        30.50R
LEWISTONAUBURN FAIR      38  22  52 N16       30.50R
AUGUSTA        FAIR      36  21  54 N7        30.51R
WATERVILLE     FAIR      35  21  56 N9        30.46R
BANGOR         FAIR      34  19  54 NW17      30.50R
GREENVILLE       N/A     24  14  65 NW14G25   30.43R WCI  12
MILLINOCKET    FAIR      30  17  58 NW13      30.50R WCI  20
HOULTON        FAIR      25   7  46 NW15G26   30.46R WCI  13
PRESQUE ISLE   FAIR      20   5  52 NW17G23   30.49R WCI   5
FRENCHVILLE    FAIR      11   1  64 NW22G30   30.43R WCI  -8
CARIBOU        FAIR      18   4  54 NW13G24   30.47R WCI   5
$$

NHZ002-005-008-009-011-012-014-220800-
NEW HAMPSHIRE

CITY           SKY/WX    TMP DP  RH WIND       PRES   REMARKS
PORTSMOUTH     CLOUDY    44  26  50 NW10      30.47R
ROCHESTER      CLOUDY    41  25  53 NW12      30.49R
MANCHESTER     CLOUDY    43  26  51 N8        30.49R
CONCORD        CLOUDY    39  26  59 N8        30.52R
LACONIA        CLOUDY    37  22  54 W9G16     30.51R
PLYMOUTH       FAIR      36  22  58 NW8       30.53R
BERLIN         FAIR      31  18  58 N7        30.51R
WHITEFIELD     FAIR      30  21  69 CALM      30.54R
JAFFREY        CLOUDY    41  23  48 NW5       30.49R
KEENE          FAIR      40  25  55 N13       30.52R
LEBANON        CLOUDY    37  24  59 N10       30.55R
MT WASHINGTON  PTCLDY    12  -2  52 NW70        N/A  WCI -17
$$

VTZ005-007-008-220800-
VERMONT

CITY           SKY/WX    TMP DP  RH WIND       PRES   REMARKS
ST JOHNSBURY     N/A     31  19  61 MISG      30.54R
MONTPELIER     FAIR      29  19  66 NW7       30.58R
BURLINGTON     FAIR      32  17  54 N10       30.62R
$$

MAZ007-012-024-CTZ003-RIZ002-NYZ038-NYZ072-220800-
SOUTHERN NEW ENGLAND AND NY

CITY           SKY/WX    TMP DP  RH WIND       PRES   REMARKS
BOSTON         CLOUDY    51  20  29 NW15      30.48R
WORCESTER      CLOUDY    48  36  63 N12G18    30.46R
NANTUCKET      CLOUDY    48  44  86 N15       30.43R
PROVIDENCE     CLOUDY    57  43  59 N15       30.44R
HARTFORD       CLOUDY    49  29  46 N12       30.49R
ALBANY         CLOUDY    39  32  76 N7        30.56R
NEW YORK CITY  CLOUDY    56  33  42 N14       30.44R
$$

ANZ081-ANZ082-ANZ150-NHZ014-MEZ023>029-220800-
COASTAL MARINE OBSERVATIONS

STATION/POSITION TIME  TEMP    WIND        PRES    WAVE
                       AIR SEA DIR/SP/G            HT/PER
                 (UTC) (F)     (DEG/KT/KT) (MB)    (FT/S)
MOUNT DESERT ROC 0700   40     310/ 23/ 26 1031.3R
MATINICUS ROCK   0700   41     350/ 21/ 23 1031.0R
ISLE OF SHOALS   0700   44     310/ 13/ 15 1031.8R
JEFFREYS LEDGE   0636      42                N/A     3/13
GEORGES BANK BUO 0550   59 58              1015.3   13/ 9
$$

.............KEY..............
   WCI - WIND CHILL
   TC  - TEMPERATURE IN CELSIUS
   VSB - VISIBILITY IN MILES
   HX  - HEAT INDEX
   FAIR- INDICATES FEW OR NO CLOUDS BELOW 12,000 FT, WITH NO
         SIGNIFICANT WEATHER AND/OR OBSTRUCTIONS TO VISIBILITY.






USA.gov is the U.S. government's official web portal to all federal, state and local government web resources and services.